Regional Weather Roundup
Issued by NWS

Home | Current Version | Previous Version | Graphics & Text | Print | Product List | Glossary On
Versions: 1 2 3 4 5 6 7 8 9 10 11 12 13 14 15 16 17 18 19 20 21 22 23 24 25 26 27 28 29 30 31 32 33 34 35 36 37 38 39 40 41 42 43 44 45 46 47 48 49 50
000
ASUS43 KBIS 192310
RWRND

NORTH DAKOTA REGIONAL WEATHER ROUNDUP
NATIONAL WEATHER SERVICE BISMARCK ND
500 PM CST SUN NOV 19 2017

NOTE: "FAIR" INDICATES FEW OR NO CLOUDS BELOW 12,000 FEET WITH NO
SIGNIFICANT WEATHER AND/OR OBSTRUCTIONS TO VISIBILITY.


NDZ001>003-009>011-017-200000-
NORTHWEST NORTH DAKOTA

CITY           SKY/WX    TMP DP  RH WIND       PRES   REMARKS
WILLISTON      CLOUDY    40  21  46 S3        29.68F
MINOT          CLOUDY    38  25  59 S6        29.69F
MINOT AFB      CLOUDY    33  25  72 S8        29.67F
$$

NDZ018>021-031>035-040>046-200000-
SOUTHWEST NORTH DAKOTA

CITY           SKY/WX    TMP DP  RH WIND       PRES   REMARKS
BISMARCK       CLOUDY    44  25  47 SW6       29.77F
DICKINSON      CLOUDY    36  20  52 S8        29.71F
GARRISON         N/A     33  26  75 S3        29.72F
HETTINGER ARPT CLOUDY    42  19  39 SE5       29.76F
$$

NDZ004>008-012>016-024-026-027-054-200000-
NORTHEAST NORTH DAKOTA

CITY           SKY/WX    TMP DP  RH WIND       PRES   REMARKS
GRAND FORKS    PTCLDY    29  24  82 CALM      29.78F
GRND FRKS AFB  CLEAR     27  22  81 CALM      29.78S
DEVILS LAKE    CLOUDY    32  27  81 S3        29.74F
$$

NDZ022-023-025-028>030-036>039-047>053-200000-
SOUTHEAST NORTH DAKOTA

CITY           SKY/WX    TMP DP  RH WIND       PRES   REMARKS
FARGO          CLEAR     38  25  59 W6        29.78F
JAMESTOWN      CLOUDY    34  25  69 SW3       29.76F
$$





USA.gov is the U.S. government's official web portal to all federal, state and local government web resources and services.